V8500A YSSY-YMML

Flight info

Callsign V8500A
Flight time N/A
Altitude 40000
Route WOL H65 LEECE Q29 ML
Aircraft HDJT/L-SABDGRWY/H

Departure

Time 2026-04-30 07:50
Airport Sydney Kingsford Smith International Airport (YSSY)

Arrival

Time N/A
Airport Melbourne Airport (YMML)
Time Latitude Longitude Altitude Speed Heading
2026-04-30 06:41 -33.93999 151.16402 16 ft 0 kts 85°
2026-04-30 07:23 -33.94000 151.16394 15 ft 1 kts 85°
2026-04-30 07:23 -33.94000 151.16383 15 ft 1 kts 85°
2026-04-30 07:23 -33.94002 151.16363 15 ft 2 kts 85°
2026-04-30 07:24 -33.94003 151.16343 15 ft 2 kts 85°
2026-04-30 07:24 -33.94004 151.16330 15 ft 1 kts 85°
2026-04-30 07:24 -33.94005 151.16316 15 ft 2 kts 85°
2026-04-30 07:24 -33.94002 151.16303 15 ft 2 kts 115°
2026-04-30 07:25 -33.93995 151.16294 15 ft 0 kts 151°
2026-04-30 07:26 -33.94002 151.16295 15 ft 1 kts 185°
2026-04-30 07:27 -33.94022 151.16288 15 ft 8 kts 200°
2026-04-30 07:27 -33.94082 151.16272 15 ft 9 kts 184°
2026-04-30 07:27 -33.94145 151.16290 16 ft 10 kts 156°
2026-04-30 07:27 -33.94178 151.16352 16 ft 9 kts 87°
2026-04-30 07:28 -33.94161 151.16421 16 ft 9 kts 74°
2026-04-30 07:28 -33.94143 151.16497 16 ft 10 kts 72°
2026-04-30 07:28 -33.94123 151.16579 16 ft 11 kts 75°
2026-04-30 07:28 -33.94100 151.16680 16 ft 14 kts 74°
2026-04-30 07:29 -33.94073 151.16794 16 ft 15 kts 74°
2026-04-30 07:29 -33.94045 151.16915 15 ft 15 kts 74°
2026-04-30 07:29 -33.94017 151.17030 15 ft 12 kts 73°
2026-04-30 07:29 -33.93997 151.17110 14 ft 4 kts 74°
2026-04-30 07:30 -33.93980 151.17183 14 ft 7 kts 75°
2026-04-30 07:30 -33.93958 151.17287 13 ft 19 kts 76°
2026-04-30 07:30 -33.93924 151.17437 12 ft 17 kts 74°
2026-04-30 07:31 -33.93893 151.17566 13 ft 15 kts 74°
2026-04-30 07:31 -33.93865 151.17684 13 ft 13 kts 78°
2026-04-30 07:31 -33.93885 151.17773 15 ft 10 kts 152°
2026-04-30 07:31 -33.93895 151.17778 15 ft 0 kts 163°
2026-04-30 07:32 -33.93910 151.17789 16 ft 3 kts 158°
2026-04-30 07:32 -33.93985 151.17808 17 ft 7 kts 170°
2026-04-30 07:33 -33.94037 151.17819 17 ft 12 kts 170°
2026-04-30 07:33 -33.94126 151.17839 18 ft 14 kts 168°
2026-04-30 07:33 -33.94211 151.17868 19 ft 13 kts 158°
2026-04-30 07:33 -33.94271 151.17905 19 ft 0 kts 159°
2026-04-30 07:34 -33.94272 151.17905 19 ft 0 kts 158°
2026-04-30 07:35 -33.94277 151.17906 19 ft 0 kts 178°
2026-04-30 07:35 -33.94305 151.17903 19 ft 9 kts 188°
2026-04-30 07:36 -33.94362 151.17900 19 ft 10 kts 171°
2026-04-30 07:36 -33.94456 151.17909 19 ft 17 kts 198°
2026-04-30 07:36 -33.94548 151.17889 18 ft 9 kts 168°
2026-04-30 07:36 -33.94623 151.17909 18 ft 14 kts 168°
2026-04-30 07:37 -33.94708 151.17930 17 ft 17 kts 167°
2026-04-30 07:37 -33.94844 151.17965 15 ft 13 kts 168°
2026-04-30 07:37 -33.94922 151.17986 16 ft 13 kts 168°
2026-04-30 07:37 -33.95018 151.18010 20 ft 12 kts 168°
2026-04-30 07:38 -33.95095 151.18056 21 ft 13 kts 118°
2026-04-30 07:38 -33.95097 151.18138 19 ft 11 kts 78°
2026-04-30 07:38 -33.95081 151.18227 19 ft 4 kts 78°
2026-04-30 07:38 -33.95074 151.18265 19 ft 4 kts 78°
2026-04-30 07:39 -33.95070 151.18292 19 ft 3 kts 78°
2026-04-30 07:39 -33.95068 151.18304 19 ft 0 kts 78°
2026-04-30 07:41 -33.95064 151.18324 20 ft 4 kts 78°
2026-04-30 07:41 -33.95059 151.18355 20 ft 2 kts 78°
2026-04-30 07:41 -33.95051 151.18398 20 ft 10 kts 78°
2026-04-30 07:41 -33.95051 151.18484 21 ft 8 kts 118°
2026-04-30 07:42 -33.95112 151.18538 21 ft 14 kts 141°
2026-04-30 07:42 -33.95203 151.18640 20 ft 21 kts 139°
2026-04-30 07:42 -33.95319 151.18719 20 ft 18 kts 163°
2026-04-30 07:42 -33.95443 151.18755 17 ft 19 kts 167°
2026-04-30 07:43 -33.95568 151.18787 18 ft 18 kts 168°
2026-04-30 07:43 -33.95684 151.18816 20 ft 16 kts 168°
2026-04-30 07:43 -33.95794 151.18846 20 ft 17 kts 167°
2026-04-30 07:43 -33.95926 151.18880 22 ft 22 kts 168°
2026-04-30 07:44 -33.96081 151.18921 20 ft 23 kts 168°
2026-04-30 07:44 -33.96219 151.18956 21 ft 15 kts 168°
2026-04-30 07:44 -33.96342 151.18986 20 ft 22 kts 168°
2026-04-30 07:44 -33.96449 151.19015 15 ft 19 kts 167°
2026-04-30 07:45 -33.96623 151.19061 14 ft 17 kts 168°
2026-04-30 07:45 -33.96693 151.19077 13 ft 15 kts 172°
2026-04-30 07:45 -33.96776 151.19069 13 ft 11 kts 189°
2026-04-30 07:45 -33.96852 151.19077 13 ft 11 kts 166°
2026-04-30 07:46 -33.96922 151.19094 14 ft 10 kts 168°
2026-04-30 07:46 -33.96983 151.19110 15 ft 8 kts 168°
2026-04-30 07:46 -33.97052 151.19127 15 ft 12 kts 168°
2026-04-30 07:46 -33.97126 151.19168 15 ft 7 kts 120°
2026-04-30 07:47 -33.97128 151.19234 15 ft 10 kts 78°
2026-04-30 07:47 -33.97123 151.19257 15 ft 0 kts 78°
2026-04-30 07:48 -33.97114 151.19308 15 ft 16 kts 71°
2026-04-30 07:49 -33.97048 151.19380 15 ft 15 kts 353°
2026-04-30 07:49 -33.96986 151.19357 14 ft 9 kts 347°
2026-04-30 07:49 -33.96777 151.19303 12 ft 68 kts 347°
2026-04-30 07:49 -33.96050 151.19126 24 ft 142 kts 349°
2026-04-30 07:50 -33.95097 151.18886 383 ft 156 kts 351°
2026-04-30 07:50 -33.94062 151.18595 1115 ft 151 kts 352°
2026-04-30 07:50 -33.93047 151.18313 1822 ft 149 kts 351°
2026-04-30 07:50 -33.92048 151.18017 2340 ft 151 kts 349°
2026-04-30 07:51 -33.91057 151.17623 2988 ft 148 kts 347°
2026-04-30 07:51 -33.90051 151.17278 3563 ft 152 kts 348°
2026-04-30 07:51 -33.89020 151.16938 4167 ft 155 kts 348°
2026-04-30 07:51 -33.87942 151.16818 4533 ft 164 kts 13°
2026-04-30 07:52 -33.86996 151.17433 4877 ft 152 kts 58°
2026-04-30 07:52 -33.86584 151.18616 4704 ft 161 kts 75°
2026-04-30 07:52 -33.86341 151.20056 4000 ft 187 kts 80°
2026-04-30 07:52 -33.86259 151.21654 3730 ft 195 kts 96°
2026-04-30 07:53 -33.86813 151.23052 4002 ft 178 kts 125°
2026-04-30 07:53 -33.87558 151.24155 4459 ft 162 kts 124°
2026-04-30 07:53 -33.88075 151.25315 4980 ft 157 kts 107°
2026-04-30 07:53 -33.88370 151.26580 5120 ft 158 kts 101°
2026-04-30 07:54 -33.88638 151.27840 5789 ft 155 kts 103°
2026-04-30 07:54 -33.88934 151.29128 6270 ft 171 kts 104°
2026-04-30 07:54 -33.89270 151.30632 6522 ft 201 kts 104°
2026-04-30 07:54 -33.89657 151.32374 6760 ft 230 kts 104°
2026-04-30 07:55 -33.90095 151.34348 6931 ft 258 kts 104°
2026-04-30 07:55 -33.90575 151.36484 7473 ft 265 kts 104°
2026-04-30 07:55 -33.91060 151.38643 8109 ft 271 kts 104°
2026-04-30 07:55 -33.91548 151.40849 8818 ft 274 kts 103°
2026-04-30 07:56 -33.92043 151.43095 9435 ft 281 kts 104°
2026-04-30 07:56 -33.92547 151.45373 10159 ft 283 kts 103°
2026-04-30 07:56 -33.93061 151.47676 10782 ft 287 kts 103°
2026-04-30 07:56 -33.93726 151.49958 11377 ft 293 kts 118°
2026-04-30 07:57 -33.95113 151.51769 11986 ft 300 kts 144°
2026-04-30 07:57 -33.97056 151.52700 12591 ft 306 kts 171°
2026-04-30 07:57 -33.99176 151.52542 13228 ft 308 kts 197°
2026-04-30 07:57 -34.01055 151.51319 13847 ft 310 kts 222°
2026-04-30 07:58 -34.02335 151.49257 14467 ft 310 kts 247°
2026-04-30 07:58 -34.02971 151.46770 14979 ft 313 kts 257°
2026-04-30 07:58 -34.03477 151.44202 15514 ft 316 kts 255°
2026-04-30 07:58 -34.04164 151.41670 16064 ft 319 kts 248°
2026-04-30 07:59 -34.05119 151.39277 16581 ft 323 kts 239°
2026-04-30 07:59 -34.06507 151.37093 17126 ft 326 kts 224°
2026-04-30 07:59 -34.08195 151.35312 17663 ft 329 kts 218°
2026-04-30 08:00 -34.11671 151.31648 18754 ft 335 kts 224°
2026-04-30 08:00 -34.13283 151.29608 19225 ft 337 kts 226°
2026-04-30 08:00 -34.14896 151.27540 19725 ft 339 kts 225°
2026-04-30 08:00 -34.16573 151.25532 20205 ft 341 kts 223°
2026-04-30 08:01 -34.18302 151.23568 20702 ft 342 kts 222°
2026-04-30 08:01 -34.20041 151.21578 21175 ft 345 kts 223°
2026-04-30 08:01 -34.21758 151.19544 21666 ft 347 kts 224°
2026-04-30 08:01 -34.23476 151.17474 22155 ft 349 kts 224°
2026-04-30 08:02 -34.26974 151.13340 23138 ft 354 kts 223°
2026-04-30 08:02 -34.28749 151.11263 23627 ft 356 kts 223°
2026-04-30 08:03 -34.32312 151.07038 24500 ft 361 kts 223°
2026-04-30 08:03 -34.35921 151.02759 25301 ft 365 kts 223°
2026-04-30 08:03 -34.37739 151.00613 25703 ft 366 kts 223°
2026-04-30 08:04 -34.39566 150.98446 26096 ft 368 kts 223°
2026-04-30 08:04 -34.41397 150.96267 26472 ft 370 kts 223°
2026-04-30 08:04 -34.43238 150.94075 26830 ft 372 kts 223°
2026-04-30 08:04 -34.45088 150.91878 27231 ft 372 kts 223°
2026-04-30 08:05 -34.46931 150.89690 27677 ft 371 kts 223°
2026-04-30 08:05 -34.48768 150.87503 28112 ft 370 kts 223°
2026-04-30 08:05 -34.50597 150.85322 28540 ft 369 kts 223°
2026-04-30 08:05 -34.52422 150.83143 28986 ft 367 kts 223°
2026-04-30 08:06 -34.54241 150.80975 29393 ft 367 kts 223°
2026-04-30 08:06 -34.56019 150.78763 29820 ft 366 kts 229°
2026-04-30 08:06 -34.57520 150.76267 30218 ft 367 kts 234°
2026-04-30 08:06 -34.58942 150.73701 30590 ft 366 kts 233°
2026-04-30 08:07 -34.60452 150.71226 30925 ft 365 kts 230°
2026-04-30 08:07 -34.62015 150.68808 31262 ft 364 kts 230°
2026-04-30 08:07 -34.63543 150.66361 31582 ft 363 kts 232°
2026-04-30 08:07 -34.65014 150.63871 31914 ft 363 kts 233°
2026-04-30 08:08 -34.66473 150.61374 32234 ft 362 kts 232°
2026-04-30 08:08 -34.67950 150.58909 32570 ft 361 kts 232°
2026-04-30 08:08 -34.69446 150.56462 32880 ft 360 kts 231°
2026-04-30 08:08 -34.70930 150.54017 33202 ft 359 kts 232°
2026-04-30 08:09 -34.72401 150.51557 33513 ft 359 kts 232°
2026-04-30 08:09 -34.73858 150.49102 33839 ft 358 kts 232°
2026-04-30 08:09 -34.75323 150.46654 34134 ft 357 kts 232°
2026-04-30 08:09 -34.76788 150.44217 34425 ft 357 kts 232°
2026-04-30 08:10 -34.78253 150.41781 34666 ft 357 kts 232°
2026-04-30 08:10 -34.79711 150.39341 34951 ft 355 kts 233°
2026-04-30 08:10 -34.81156 150.36914 35228 ft 354 kts 233°
2026-04-30 08:10 -34.82600 150.34491 35475 ft 353 kts 233°
2026-04-30 08:11 -34.84039 150.32082 35730 ft 352 kts 233°
2026-04-30 08:11 -34.85475 150.29677 35994 ft 350 kts 233°
2026-04-30 08:11 -34.86885 150.27310 36244 ft 349 kts 234°
2026-04-30 08:11 -34.88310 150.24912 36502 ft 348 kts 234°
2026-04-30 08:12 -34.89724 150.22532 36744 ft 347 kts 234°
2026-04-30 08:12 -34.91137 150.20157 36988 ft 345 kts 234°
2026-04-30 08:12 -34.92543 150.17792 37230 ft 344 kts 234°
2026-04-30 08:12 -34.93945 150.15431 37463 ft 343 kts 234°
2026-04-30 08:13 -34.95339 150.13080 37701 ft 342 kts 234°
2026-04-30 08:13 -34.96729 150.10734 37947 ft 341 kts 234°
2026-04-30 08:13 -34.98114 150.08398 38185 ft 339 kts 234°
2026-04-30 08:13 -34.99494 150.06069 38399 ft 338 kts 235°
2026-04-30 08:14 -35.00870 150.03743 38626 ft 337 kts 235°
2026-04-30 08:14 -35.02239 150.01426 38850 ft 336 kts 235°
2026-04-30 08:14 -35.03604 149.99117 39061 ft 335 kts 235°
2026-04-30 08:14 -35.04965 149.96813 39227 ft 335 kts 235°
2026-04-30 08:15 -35.06316 149.94501 39373 ft 334 kts 236°
2026-04-30 08:15 -35.07608 149.92143 39511 ft 334 kts 238°
2026-04-30 08:15 -35.08866 149.89750 39649 ft 334 kts 238°
2026-04-30 08:15 -35.10134 149.87379 39785 ft 334 kts 238°
2026-04-30 08:16 -35.11431 149.85029 39930 ft 333 kts 237°
2026-04-30 08:16 -35.12732 149.82691 40070 ft 333 kts 237°
2026-04-30 08:16 -35.14018 149.80343 40202 ft 333 kts 238°
2026-04-30 08:16 -35.15293 149.77982 40334 ft 333 kts 238°
2026-04-30 08:17 -35.16569 149.75622 40406 ft 335 kts 238°
2026-04-30 08:17 -35.19182 149.70837 40408 ft 342 kts 238°
2026-04-30 08:18 -35.21840 149.65949 40408 ft 348 kts 238°
2026-04-30 08:18 -35.24535 149.60972 40415 ft 353 kts 238°
2026-04-30 08:19 -35.27276 149.55932 40424 ft 358 kts 238°
2026-04-30 08:19 -35.30036 149.50824 40428 ft 362 kts 238°
2026-04-30 08:20 -35.32806 149.45700 40426 ft 365 kts 238°
2026-04-30 08:20 -35.35619 149.40496 40432 ft 368 kts 238°
2026-04-30 08:21 -35.38441 149.35250 40434 ft 370 kts 238°
2026-04-30 08:21 -35.41283 149.29975 40430 ft 372 kts 238°
2026-04-30 08:22 -35.44137 149.24668 40432 ft 373 kts 238°
2026-04-30 08:22 -35.46993 149.19334 40433 ft 374 kts 238°
2026-04-30 08:23 -35.49860 149.13989 40432 ft 375 kts 238°
2026-04-30 08:23 -35.52728 149.08627 40432 ft 376 kts 238°
2026-04-30 08:24 -35.55602 149.03240 40425 ft 377 kts 238°
2026-04-30 08:24 -35.58481 148.97852 40432 ft 377 kts 238°
2026-04-30 08:25 -35.61351 148.92451 40435 ft 378 kts 238°
2026-04-30 08:25 -35.64223 148.87050 40443 ft 377 kts 238°
2026-04-30 08:26 -35.67094 148.81646 40438 ft 378 kts 238°
2026-04-30 08:26 -35.69960 148.76228 40442 ft 378 kts 239°
2026-04-30 08:27 -35.72832 148.70811 40445 ft 378 kts 239°
2026-04-30 08:27 -35.75696 148.65383 40447 ft 378 kts 239°
2026-04-30 08:28 -35.78540 148.59986 40443 ft 378 kts 239°
2026-04-30 08:28 -35.81405 148.54557 40438 ft 378 kts 239°
2026-04-30 08:29 -35.84259 148.49118 40441 ft 378 kts 239°
2026-04-30 08:29 -35.87118 148.43679 40437 ft 378 kts 239°
2026-04-30 08:30 -35.89970 148.38238 40440 ft 378 kts 239°
2026-04-30 08:30 -35.92816 148.32789 40426 ft 378 kts 239°
2026-04-30 08:31 -35.95667 148.27341 40426 ft 378 kts 239°
2026-04-30 08:31 -35.98032 148.22807 40418 ft 378 kts 239°
2026-04-30 08:32 -36.00874 148.17346 40417 ft 378 kts 239°
2026-04-30 08:32 -36.03717 148.11889 40415 ft 378 kts 239°
2026-04-30 08:33 -36.06549 148.06424 40412 ft 378 kts 239°
2026-04-30 08:33 -36.09383 148.00962 40398 ft 377 kts 239°
2026-04-30 08:34 -36.12214 147.95497 40404 ft 377 kts 240°
2026-04-30 08:34 -36.15035 147.90031 40391 ft 377 kts 240°
2026-04-30 08:35 -36.17857 147.84570 40395 ft 377 kts 240°
2026-04-30 08:35 -36.20672 147.79098 40396 ft 377 kts 240°
2026-04-30 08:36 -36.23487 147.73625 40398 ft 377 kts 240°
2026-04-30 08:36 -36.26306 147.68144 40385 ft 377 kts 240°
2026-04-30 08:37 -36.29116 147.62654 40397 ft 377 kts 240°
2026-04-30 08:37 -36.31932 147.57156 40390 ft 378 kts 240°
2026-04-30 08:38 -36.34727 147.51685 40396 ft 378 kts 240°
2026-04-30 08:38 -36.37538 147.46172 40385 ft 378 kts 240°
2026-04-30 08:39 -36.40354 147.40651 40401 ft 378 kts 240°
2026-04-30 08:39 -36.43163 147.35122 40386 ft 379 kts 240°
2026-04-30 08:40 -36.45976 147.29582 40380 ft 379 kts 240°
2026-04-30 08:40 -36.48788 147.24034 40379 ft 380 kts 241°
2026-04-30 08:41 -36.51603 147.18469 40385 ft 380 kts 241°
2026-04-30 08:41 -36.54675 147.13095 40383 ft 382 kts 234°
2026-04-30 08:42 -36.58023 147.07940 40389 ft 383 kts 235°